sat.trackr.live / text

‹ back to catalog

SSTL S1-4

NORAD 43618 · 2018-071A

PAYLOAD ACTIVE UNKNOWN

§ Identity

Operator
Country
UK
Launch date
2018-09-16
Launch site
SRILR
Launch vehicle
Mass (kg)
RCS (m²)

External: N2YO · Heavens-Above · Gunter

§ Orbital elements

Epoch: 2026-05-25T05:10:50.705760Z

Period
96.24 min
Inclination
97.5067°
Eccentricity
0.0001296
Mean motion
14.96190249 rev/d
Perigee alt
577.8 km
Apogee alt
579.6 km
Semi-major
6,956.8 km
B*
4.9562e-5
RAAN
17.7826°
Arg perigee
73.1211°
Mean anomaly
287.0153°
Rev number
41,950

§ Raw data

SSTL S1-41 43618U 18071A   26145.21586465  .00000504  00000+0  49562-4 0  99922 43618  97.5067  17.7826 0001296  73.1211 287.0153 14.96190249419502

JSON: /api/v1/satellites/43618 · /tle

For live sub-satellite position, see the globe view (requires WebGL).

§ Visibility from observer

Set your observer location to see the next 7 days of passes ≥ 10°. The values pass through the URL so the page stays shareable.

No JS? Fill the form by hand. The geolocation button needs JavaScript.

§ Radio — SatNOGS DB

ModeDescriptionDownlinkUplink
BPSK S-band telemetry 2.240 GHz

1 transmitter · refreshed weekly from db.satnogs.org